This demonstration page uses our WeatherBlox Daily Observations layout. Learn more.

Left ArrowRight Arrow

Hourly Observations for July 24, 2015

Temp ( °F °C ) Dew Point ( °F °C ) Humidity (%) Winds ( mph kmh ) Pressure ( in mb ) Visibility ( mi km ) Precip ( " mm )
12:53 am 00:53 Clear 73 22.8 43 6.1 34 34 N 3 6 29.96 1015 10 16 0.00 0.00
1:53 am 01:53 Clear 70 21.1 42 5.6 37 37 undefined N/A 29.98 1015 10 16 0.00 0.00
2:53 am 02:53 Clear 65 18.3 44 6.7 47 47 W 3 6 29.99 1016 10 16 0.00 0.00
3:53 am 03:53 Clear 65 18.3 44 6.7 47 47 Calm 30.00 1016 10 16 0.00 0.00
4:53 am 04:53 Clear 64 17.8 45 7.2 50 50 Calm 30.01 1016 10 16 0.00 0.00
5:53 am 05:53 Clear 62 16.7 42 5.6 48 48 Calm 30.02 1017 10 16 0.00 0.00
6:53 am 06:53 Sunny 63 17.2 43 6.1 48 48 Calm 30.04 1017 10 16 0.00 0.00
7:53 am 07:53 Sunny 69 20.6 43 6.1 39 39 Calm 30.05 1018 10 16 0.00 0.00
8:53 am 08:53 Sunny 73 22.8 43 6.1 34 34 Calm 30.06 1018 10 16 0.00 0.00
9:53 am 09:53 Sunny 77 25 44 6.7 31 31 Calm 30.05 1018 10 16 0.00 0.00
10:53 am 10:53 Sunny 81 27.2 45 7.2 28 28 VRB 3 6 30.05 1018 10 16 0.00 0.00
11:53 am 11:53 Sunny 85 29.4 47 8.3 27 27 Calm 30.04 1017 10 16 0.00 0.00
12:53 pm 12:53 Sunny 88 31.1 46 7.8 23 23 VRB 3 6 30.02 1017 10 16 0.00 0.00
1:53 pm 13:53 Sunny 90 32.2 43 6.1 19 19 S 8 13 30.01 1016 10 16 0.00 0.00
2:53 pm 14:53 Sunny 93 33.9 41 5 16 16 S 13 20 29.99 1016 10 16 0.00 0.00
3:53 pm 15:53 Sunny 94 34.4 35 1.7 13 13 SSE 12 19 29.98 1015 10 16 0.00 0.00
4:53 pm 16:53 Sunny 93 33.9 31 -0.6 11 11 SSE 16 26 29.96 1015 10 16 0.00 0.00
5:53 pm 17:53 Sunny 93 33.9 31 -0.6 11 11 SSE 13 20 29.95 1014 10 16 0.00 0.00
6:53 pm 18:53 Sunny 91 32.8 29 -1.7 11 11 SSE 14 22 29.95 1014 10 16 0.00 0.00
7:53 pm 19:53 Sunny 88 31.1 34 1.1 15 15 S 9 15 29.95 1014 10 16 0.00 0.00
8:53 pm 20:53 Clear 85 29.4 41 5 21 21 SSW 8 13 29.96 1015 10 16 0.00 0.00
9:53 pm 21:53 Clear 79 26.1 37 2.8 22 22 ESE 5 7 29.98 1015 10 16 0.00 0.00
10:53 pm 22:53 Clear 77 25 39 3.9 26 26 Calm 30.00 1016 10 16 0.00 0.00
11:53 pm 23:53 Clear 74 23.3 42 5.6 32 32 Calm 30.01 1016 10 16 0.00 0.00

Powered by AerisWeather